Year,Month,Day,Hour,Minute,Value (Times are PST for temperature in C)
2016,03,30,00,00,7.60
2016,03,30,00,01,7.60
2016,03,30,00,02,7.50
2016,03,30,00,03,7.50
2016,03,30,00,04,7.50
2016,03,30,00,05,7.50
2016,03,30,00,06,7.50
2016,03,30,00,07,7.50
2016,03,30,00,08,7.50
2016,03,30,00,09,7.50
2016,03,30,00,10,7.50
2016,03,30,00,11,7.40
2016,03,30,00,12,7.40
2016,03,30,00,13,7.40
2016,03,30,00,14,7.40
2016,03,30,00,15,7.40
2016,03,30,00,16,7.40
2016,03,30,00,17,7.40
2016,03,30,00,18,7.40
2016,03,30,00,19,7.30
2016,03,30,00,20,7.30
2016,03,30,00,21,7.30
2016,03,30,00,22,7.30
2016,03,30,00,23,7.20
2016,03,30,00,24,7.20
2016,03,30,00,25,7.20
2016,03,30,00,26,7.10
2016,03,30,00,27,7.10
2016,03,30,00,28,7.10
2016,03,30,00,29,7.10
2016,03,30,00,30,7.00
2016,03,30,00,31,7.00
2016,03,30,00,32,6.90
2016,03,30,00,33,6.90
2016,03,30,00,34,6.90
2016,03,30,00,35,6.90
2016,03,30,00,36,6.90
2016,03,30,00,37,6.80
2016,03,30,00,38,6.80
2016,03,30,00,39,6.80
2016,03,30,00,40,6.80
2016,03,30,00,41,6.80
2016,03,30,00,42,6.80
2016,03,30,00,43,6.80
2016,03,30,00,44,6.80
2016,03,30,00,45,6.70
2016,03,30,00,46,6.80
2016,03,30,00,47,6.70
2016,03,30,00,48,6.70
2016,03,30,00,49,6.70
2016,03,30,00,50,6.70
2016,03,30,00,51,6.70
2016,03,30,00,52,6.70
2016,03,30,00,53,6.70
2016,03,30,00,54,6.70
2016,03,30,00,55,6.70
2016,03,30,00,56,6.60
2016,03,30,00,57,6.60
2016,03,30,00,58,6.60
2016,03,30,00,59,6.60
2016,03,30,01,00,6.60
2016,03,30,01,01,6.50
2016,03,30,01,02,6.50
2016,03,30,01,03,6.50
2016,03,30,01,04,6.50
2016,03,30,01,05,6.50
2016,03,30,01,06,6.50
2016,03,30,01,07,6.40
2016,03,30,01,08,6.40
2016,03,30,01,09,6.40
2016,03,30,01,10,6.40
2016,03,30,01,11,6.40
2016,03,30,01,12,6.40
2016,03,30,01,13,6.30
2016,03,30,01,14,6.30
2016,03,30,01,15,6.30
2016,03,30,01,16,6.30
2016,03,30,01,17,6.30
2016,03,30,01,18,6.30
2016,03,30,01,19,6.30
2016,03,30,01,20,6.30
2016,03,30,01,21,6.30
2016,03,30,01,22,6.20
2016,03,30,01,23,6.20
2016,03,30,01,24,6.20
2016,03,30,01,25,6.20
2016,03,30,01,26,6.20
2016,03,30,01,27,6.20
2016,03,30,01,28,6.20
2016,03,30,01,29,6.20
2016,03,30,01,30,6.10
2016,03,30,01,31,6.10
2016,03,30,01,32,6.10
2016,03,30,01,33,6.10
2016,03,30,01,34,6.10
2016,03,30,01,35,6.10
2016,03,30,01,36,6.10
2016,03,30,01,37,6.10
2016,03,30,01,38,6.10
2016,03,30,01,39,6.00
2016,03,30,01,40,6.00
2016,03,30,01,41,6.00
2016,03,30,01,42,6.00
2016,03,30,01,43,5.90
2016,03,30,01,44,5.90
2016,03,30,01,45,5.90
2016,03,30,01,46,5.90
2016,03,30,01,47,5.90
2016,03,30,01,48,5.90
2016,03,30,01,49,5.80
2016,03,30,01,50,5.80
2016,03,30,01,51,5.80
2016,03,30,01,52,5.80
2016,03,30,01,53,5.80
2016,03,30,01,54,5.80
2016,03,30,01,55,5.80
2016,03,30,01,56,5.80
2016,03,30,01,57,5.80
2016,03,30,01,58,5.80
2016,03,30,01,59,5.80
2016,03,30,02,00,5.80
2016,03,30,02,01,5.80
2016,03,30,02,02,5.70
2016,03,30,02,03,5.70
2016,03,30,02,04,5.70
2016,03,30,02,05,5.70
2016,03,30,02,06,5.70
2016,03,30,02,07,5.70
2016,03,30,02,08,5.70
2016,03,30,02,09,5.70
2016,03,30,02,10,5.70
2016,03,30,02,11,5.60
2016,03,30,02,12,5.60
2016,03,30,02,13,5.60
2016,03,30,02,14,5.60
2016,03,30,02,15,5.60
2016,03,30,02,16,5.60
2016,03,30,02,17,5.60
2016,03,30,02,18,5.60
2016,03,30,02,19,5.60
2016,03,30,02,20,5.60
2016,03,30,02,21,5.60
2016,03,30,02,22,5.60
2016,03,30,02,23,5.60
2016,03,30,02,24,5.60
2016,03,30,02,25,5.60
2016,03,30,02,26,5.60
2016,03,30,02,27,5.60
2016,03,30,02,28,5.60
2016,03,30,02,29,5.60
2016,03,30,02,30,5.60
2016,03,30,02,31,5.60
2016,03,30,02,32,5.60
2016,03,30,02,33,5.60
2016,03,30,02,34,5.70
2016,03,30,02,35,5.70
2016,03,30,02,36,5.70
2016,03,30,02,37,5.70
2016,03,30,02,38,5.70
2016,03,30,02,39,5.60
2016,03,30,02,40,5.60
2016,03,30,02,41,5.60
2016,03,30,02,42,5.60
2016,03,30,02,43,5.60
2016,03,30,02,44,5.50
2016,03,30,02,45,5.50
2016,03,30,02,46,5.50
2016,03,30,02,47,5.40
2016,03,30,02,48,5.30
2016,03,30,02,49,5.30
2016,03,30,02,50,5.30
2016,03,30,02,51,5.20
2016,03,30,02,52,5.20
2016,03,30,02,53,5.10
2016,03,30,02,54,5.10
2016,03,30,02,55,5.10
2016,03,30,02,56,5.00
2016,03,30,02,57,5.00
2016,03,30,02,58,5.00
2016,03,30,02,59,5.00
2016,03,30,03,00,4.90
2016,03,30,03,01,4.90
2016,03,30,03,02,4.90
2016,03,30,03,03,4.90
2016,03,30,03,04,4.90
2016,03,30,03,05,4.90
2016,03,30,03,06,4.90
2016,03,30,03,07,4.90
2016,03,30,03,08,4.90
2016,03,30,03,09,4.90
2016,03,30,03,10,4.90
2016,03,30,03,11,4.90
2016,03,30,03,12,4.90
2016,03,30,03,13,4.90
2016,03,30,03,14,4.90
2016,03,30,03,15,4.90
2016,03,30,03,16,4.90
2016,03,30,03,17,5.00
2016,03,30,03,18,5.00
2016,03,30,03,19,5.00
2016,03,30,03,20,5.00
2016,03,30,03,21,5.00
2016,03,30,03,22,5.00
2016,03,30,03,23,5.00
2016,03,30,03,24,5.00
2016,03,30,03,25,5.00
2016,03,30,03,26,5.00
2016,03,30,03,27,5.00
2016,03,30,03,28,5.00
2016,03,30,03,29,4.90
2016,03,30,03,30,4.90
2016,03,30,03,31,4.90
2016,03,30,03,32,4.90
2016,03,30,03,33,4.90
2016,03,30,03,34,4.90
2016,03,30,03,35,4.90
2016,03,30,03,36,4.90
2016,03,30,03,37,4.90
2016,03,30,03,38,4.80
2016,03,30,03,39,4.80
2016,03,30,03,40,4.80
2016,03,30,03,41,4.80
2016,03,30,03,42,4.80
2016,03,30,03,43,4.80
2016,03,30,03,44,4.80
2016,03,30,03,45,4.80
2016,03,30,03,46,4.80
2016,03,30,03,47,4.70
2016,03,30,03,48,4.70
2016,03,30,03,49,4.70
2016,03,30,03,50,4.70
2016,03,30,03,51,4.70
2016,03,30,03,52,4.70
2016,03,30,03,53,4.60
2016,03,30,03,54,4.60
2016,03,30,03,55,4.60
2016,03,30,03,56,4.60
2016,03,30,03,57,4.60
2016,03,30,03,58,4.50
2016,03,30,03,59,4.50
2016,03,30,04,00,4.50
2016,03,30,04,01,4.50
2016,03,30,04,02,4.40
2016,03,30,04,03,4.40
2016,03,30,04,04,4.40
2016,03,30,04,05,4.40
2016,03,30,04,06,4.40
2016,03,30,04,07,4.40
2016,03,30,04,08,4.40
2016,03,30,04,09,4.30
2016,03,30,04,10,4.30
2016,03,30,04,11,4.30
2016,03,30,04,12,4.30
2016,03,30,04,13,4.30
2016,03,30,04,14,4.30
2016,03,30,04,15,4.30
2016,03,30,04,16,4.30
2016,03,30,04,17,4.30
2016,03,30,04,18,4.20
2016,03,30,04,19,4.20
2016,03,30,04,20,4.20
2016,03,30,04,21,4.20
2016,03,30,04,22,4.20
2016,03,30,04,23,4.20
2016,03,30,04,24,4.20
2016,03,30,04,25,4.20
2016,03,30,04,26,4.20
2016,03,30,04,27,4.20
2016,03,30,04,28,4.20
2016,03,30,04,29,4.20
2016,03,30,04,30,4.20
2016,03,30,04,31,4.20
2016,03,30,04,32,4.20
2016,03,30,04,33,4.20
2016,03,30,04,34,4.20
2016,03,30,04,35,4.20
2016,03,30,04,36,4.20
2016,03,30,04,37,4.20
2016,03,30,04,38,4.20
2016,03,30,04,39,4.20
2016,03,30,04,40,4.20
2016,03,30,04,41,4.20
2016,03,30,04,42,4.20
2016,03,30,04,43,4.20
2016,03,30,04,44,4.20
2016,03,30,04,45,4.20
2016,03,30,04,46,4.20
2016,03,30,04,47,4.20
2016,03,30,04,48,4.20
2016,03,30,04,49,4.20
2016,03,30,04,50,4.20
2016,03,30,04,51,4.20
2016,03,30,04,52,4.20
2016,03,30,04,53,4.20
2016,03,30,04,54,4.20
2016,03,30,04,55,4.20
2016,03,30,04,56,4.20
2016,03,30,04,57,4.20
2016,03,30,04,58,4.20
2016,03,30,04,59,4.20
2016,03,30,05,00,4.20
2016,03,30,05,01,4.20
2016,03,30,05,02,4.10
2016,03,30,05,03,4.10
2016,03,30,05,04,4.10
2016,03,30,05,05,4.10
2016,03,30,05,06,4.10
2016,03,30,05,07,4.20
2016,03,30,05,08,4.20
2016,03,30,05,09,4.20
2016,03,30,05,10,4.20
2016,03,30,05,11,4.20
2016,03,30,05,12,4.20
2016,03,30,05,13,4.20
2016,03,30,05,14,4.20
2016,03,30,05,15,4.20
2016,03,30,05,16,4.20
2016,03,30,05,17,4.20
2016,03,30,05,18,4.20
2016,03,30,05,19,4.10
2016,03,30,05,20,4.10
2016,03,30,05,21,4.10
2016,03,30,05,22,4.10
2016,03,30,05,23,4.10
2016,03,30,05,24,4.10
2016,03,30,05,25,4.10
2016,03,30,05,26,4.10
2016,03,30,05,27,4.10
2016,03,30,05,28,4.10
2016,03,30,05,29,4.00
2016,03,30,05,30,4.00
2016,03,30,05,31,4.00
2016,03,30,05,32,3.90
2016,03,30,05,33,3.90
2016,03,30,05,34,3.90
2016,03,30,05,35,3.90
2016,03,30,05,36,3.90
2016,03,30,05,37,3.90
2016,03,30,05,38,3.80
2016,03,30,05,39,3.80
2016,03,30,05,40,3.80
2016,03,30,05,41,3.80
2016,03,30,05,42,3.80
2016,03,30,05,43,3.80
2016,03,30,05,44,3.80
2016,03,30,05,45,3.80
2016,03,30,05,46,3.80
2016,03,30,05,47,3.80
2016,03,30,05,48,3.80
2016,03,30,05,49,3.80
2016,03,30,05,50,3.80
2016,03,30,05,51,3.80
2016,03,30,05,52,3.80
2016,03,30,05,53,3.80
2016,03,30,05,54,3.80
2016,03,30,05,55,3.80
2016,03,30,05,56,3.80
2016,03,30,05,57,3.80
2016,03,30,05,58,3.80
2016,03,30,05,59,3.80
2016,03,30,06,00,3.80
2016,03,30,06,01,3.80
2016,03,30,06,02,3.80
2016,03,30,06,03,3.80
2016,03,30,06,04,3.80
2016,03,30,06,05,3.80
2016,03,30,06,06,3.80
2016,03,30,06,07,3.80
2016,03,30,06,08,3.80
2016,03,30,06,09,3.80
2016,03,30,06,10,3.80
2016,03,30,06,11,3.80
2016,03,30,06,12,3.80
2016,03,30,06,13,3.80
2016,03,30,06,14,3.80
2016,03,30,06,15,3.80
2016,03,30,06,16,3.80
2016,03,30,06,17,3.80
2016,03,30,06,18,3.90
2016,03,30,06,19,3.90
2016,03,30,06,20,3.90
2016,03,30,06,21,3.90
2016,03,30,06,22,4.00
2016,03,30,06,23,4.00
2016,03,30,06,24,4.00
2016,03,30,06,25,4.00
2016,03,30,06,26,4.00
2016,03,30,06,27,4.00
2016,03,30,06,28,4.00
2016,03,30,06,29,4.00
2016,03,30,06,30,4.00
2016,03,30,06,31,4.00
2016,03,30,06,32,4.00
2016,03,30,06,33,3.90
2016,03,30,06,34,3.90
2016,03,30,06,35,3.90
2016,03,30,06,36,3.80
2016,03,30,06,37,3.80
2016,03,30,06,38,3.80
2016,03,30,06,39,3.80
2016,03,30,06,40,3.70
2016,03,30,06,41,3.70
2016,03,30,06,42,3.70
2016,03,30,06,43,3.70
2016,03,30,06,44,3.70
2016,03,30,06,45,3.70
2016,03,30,06,46,3.70
2016,03,30,06,47,3.70
2016,03,30,06,48,3.70
2016,03,30,06,49,3.70
2016,03,30,06,50,3.70
2016,03,30,06,51,3.70
2016,03,30,06,52,3.70
2016,03,30,06,53,3.70
2016,03,30,06,54,3.70
2016,03,30,06,55,3.70
2016,03,30,06,56,3.70
2016,03,30,06,57,3.70
2016,03,30,06,58,3.70
2016,03,30,06,59,3.70
2016,03,30,07,00,3.70
2016,03,30,07,01,3.70
2016,03,30,07,02,3.70
2016,03,30,07,03,3.80
2016,03,30,07,04,3.80
2016,03,30,07,05,3.80
2016,03,30,07,06,3.90
2016,03,30,07,07,3.90
2016,03,30,07,08,3.90
2016,03,30,07,09,3.80
2016,03,30,07,10,3.80
2016,03,30,07,11,3.80
2016,03,30,07,12,3.80
2016,03,30,07,13,3.80
2016,03,30,07,14,3.80
2016,03,30,07,15,3.80
2016,03,30,07,16,3.80
2016,03,30,07,17,3.80
2016,03,30,07,18,3.80
2016,03,30,07,19,3.80
2016,03,30,07,20,3.90
2016,03,30,07,21,4.00
2016,03,30,07,22,4.10
2016,03,30,07,23,4.10
2016,03,30,07,24,4.20
2016,03,30,07,25,4.20
2016,03,30,07,26,4.30
2016,03,30,07,27,4.30
2016,03,30,07,28,4.30
2016,03,30,07,29,4.30
2016,03,30,07,30,4.30
2016,03,30,07,31,4.30
2016,03,30,07,32,4.40
2016,03,30,07,33,4.40
2016,03,30,07,34,4.50
2016,03,30,07,35,4.60
2016,03,30,07,36,4.60
2016,03,30,07,37,4.70
2016,03,30,07,38,4.80
2016,03,30,07,39,4.80
2016,03,30,07,40,4.90
2016,03,30,07,41,4.90
2016,03,30,07,42,4.90
2016,03,30,07,43,5.00
2016,03,30,07,44,5.00
2016,03,30,07,45,5.10
2016,03,30,07,46,5.10
2016,03,30,07,47,5.20
2016,03,30,07,48,5.20
2016,03,30,07,49,5.30
2016,03,30,07,50,5.30
2016,03,30,07,51,5.40
2016,03,30,07,52,5.50
2016,03,30,07,53,5.60
2016,03,30,07,54,5.60
2016,03,30,07,55,5.70
2016,03,30,07,56,5.70
2016,03,30,07,57,5.80
2016,03,30,07,58,5.80
2016,03,30,07,59,5.80
2016,03,30,08,00,5.90
2016,03,30,08,01,5.90
2016,03,30,08,02,5.90
2016,03,30,08,03,6.00
2016,03,30,08,04,6.00
2016,03,30,08,05,6.10
2016,03,30,08,06,6.10
2016,03,30,08,07,6.10
2016,03,30,08,08,6.10
2016,03,30,08,09,6.20
2016,03,30,08,10,6.20
2016,03,30,08,11,6.20
2016,03,30,08,12,6.20
2016,03,30,08,13,6.20
